"startDT [UTC]","vpos","CH4 [ppm]","stdev(CH4) [ppm]","CO2 [ppm]","stdev(CO2) [ppm]","H2O [ppm]","stdev(H2O)","p_LGR [torr]","T_LGR [C]","mt1_LGR [us]","mt2_LGR [us]","T_ECpre [C]","T_EC1 [C]","T_EC2 [C]","p_inlet [hPa]","p_in [hPa]","p_out [hPa]","T_inlet [C]","RH_inlet [%]","dwpt_inlet [C]","T_vent [C]","RH_vent [%]","dwpt_vent [C]","flow_vent [l min-1]","flow_inlet [l min-1]","dwpt_sample [C]","T_room [C]"
2012-01-18 00:00:00,0.0,1.9214,0.0008,400.93,0.20,12.9,19.8,138.11,28.44,24.60,36.32,0.04,-272.73,-272.73,-51,556,-942,23.2,2.4,-26.9,23.1,2.5,-26.6,5.73,2.49,-28.7,27.6
2012-01-18 00:01:00,0.0,1.9213,0.0009,400.89,0.20,19.9,21.3,138.10,28.47,24.60,36.33,0.04,-272.74,-272.74,-51,555,-942,23.2,2.4,-26.9,23.2,2.5,-26.4,5.73,2.29,-28.6,27.8
2012-01-18 00:02:00,0.0,1.9208,0.0008,400.97,0.21,25.0,27.4,138.10,28.49,24.60,36.32,0.04,-272.74,-272.74,-51,555,-942,23.3,2.4,-26.8,23.2,2.5,-26.4,5.73,2.45,-28.5,27.9
2012-01-18 00:03:00,0.0,1.9212,0.0009,400.90,0.21,26.6,25.2,138.09,28.52,24.60,36.33,0.04,-272.73,-272.74,-51,556,-942,23.3,2.4,-26.7,23.3,2.5,-26.3,5.73,2.45,-28.4,28.0
2012-01-18 00:04:00,0.0,1.9249,0.0030,400.92,0.21,27.2,28.2,138.09,28.55,24.60,36.33,0.04,-272.73,-272.73,-51,556,-942,23.3,2.4,-26.7,23.3,2.5,-26.3,5.73,2.29,-28.3,28.0
2012-01-18 00:05:00,0.0,1.9272,0.0008,401.01,0.18,37.4,30.0,138.09,28.58,24.61,36.32,0.04,-272.73,-272.74,-51,556,-942,23.4,2.4,-26.8,23.3,2.5,-26.4,5.73,2.44,-28.3,27.5
2012-01-18 00:06:00,0.0,1.9283,0.0013,401.02,0.18,31.5,27.1,138.10,28.60,24.60,36.33,0.04,-272.73,-272.73,-51,556,-942,23.4,2.4,-26.9,23.4,2.5,-26.5,5.73,2.44,-28.3,27.2
2012-01-18 00:07:00,0.0,1.9290,0.0013,401.09,0.19,31.8,24.6,138.10,28.61,24.61,36.33,0.04,-272.73,-272.74,-51,556,-942,23.4,2.3,-27.0,23.3,2.4,-26.6,5.73,2.41,-28.3,27.0
2012-01-18 00:08:00,0.0,1.9272,0.0008,401.08,0.21,25.4,24.5,138.11,28.62,24.61,36.33,0.04,-272.74,-272.73,-51,557,-942,23.4,2.3,-27.1,23.3,2.4,-26.8,5.73,2.38,-28.4,26.8
2012-01-18 00:09:00,0.0,1.9232,0.0016,401.18,0.21,22.7,25.2,138.11,28.62,24.61,36.32,0.04,-272.73,-272.73,-51,557,-942,23.4,2.3,-27.2,23.3,2.4,-26.9,5.73,2.38,-28.5,26.6
2012-01-18 00:10:00,0.0,1.9213,0.0010,401.10,0.21,13.6,20.0,138.11,28.62,24.61,36.33,0.04,-272.73,-272.73,-51,556,-942,23.4,2.3,-27.1,23.3,2.4,-26.8,5.73,2.38,-28.6,26.4
2012-01-18 00:11:00,0.0,1.9216,0.0009,401.07,0.21,12.0,19.6,138.12,28.61,24.61,36.33,0.04,-272.74,-272.74,-51,557,-942,23.4,2.3,-27.0,23.3,2.4,-26.7,5.73,2.39,-28.6,26.3
2012-01-18 00:12:00,0.0,1.9247,0.0013,400.97,0.18,12.8,20.2,138.12,28.60,24.61,36.33,0.04,-272.73,-272.73,-51,556,-943,23.3,2.3,-27.0,23.3,2.4,-26.6,5.73,2.41,-28.7,26.3
2012-01-18 00:13:00,0.0,1.9280,0.0013,401.04,0.25,8.8,18.4,138.12,28.59,24.61,36.32,0.04,-272.73,-272.74,-51,557,-942,23.3,2.3,-27.0,23.3,2.4,-26.6,5.73,2.44,-28.7,26.2
2012-01-18 00:14:00,0.0,1.9296,0.0012,400.84,0.23,3.3,11.4,138.13,28.58,24.61,36.32,0.04,-272.73,-272.74,-51,557,-942,23.3,2.3,-27.1,23.2,2.4,-26.8,5.73,2.46,-28.8,26.1
2012-01-18 00:15:00,0.0,1.9268,0.0023,400.78,0.24,4.5,11.3,138.13,28.57,24.60,36.32,0.04,-272.74,-272.74,-51,557,-942,23.3,2.3,-27.2,23.2,2.4,-26.8,5.73,2.46,-28.8,26.1
2012-01-18 00:16:00,0.0,1.9252,0.0017,400.71,0.21,3.3,11.8,138.13,28.55,24.61,36.32,0.04,-272.73,-272.74,-52,557,-942,23.3,2.3,-27.3,23.2,2.4,-26.9,5.73,2.44,-28.9,26.0
2012-01-18 00:17:00,0.0,1.9288,0.0009,400.67,0.20,4.7,13.2,138.13,28.54,24.61,36.31,0.04,-272.73,-272.73,-52,557,-942,23.3,2.3,-27.4,23.2,2.4,-27.0,5.73,2.40,-28.9,25.9
2012-01-18 00:18:00,0.0,1.9270,0.0015,400.58,0.20,1.0,7.3,138.14,28.52,24.60,36.32,0.04,-272.73,-272.74,-52,556,-943,23.2,2.2,-27.5,23.1,2.3,-27.1,5.73,2.37,-29.0,25.9
2012-01-18 00:19:00,0.0,1.9225,0.0014,400.57,0.22,0.8,7.2,138.14,28.50,24.61,36.32,0.04,-272.73,-272.74,-51,556,-942,23.2,2.2,-27.6,23.1,2.3,-27.2,5.73,2.35,-29.0,25.8
2012-01-18 00:20:00,0.0,1.9224,0.0017,400.47,0.23,0.1,5.0,138.14,28.48,24.60,36.32,0.04,-272.74,-272.74,-51,557,-942,23.2,2.2,-27.6,23.1,2.3,-27.3,5.73,2.35,-29.0,25.7
2012-01-18 00:21:00,0.0,1.9234,0.0009,400.54,0.22,0.1,5.5,138.14,28.46,24.61,36.31,0.04,-272.73,-272.73,-51,556,-943,23.2,2.3,-27.5,23.1,2.3,-27.3,5.73,2.36,-29.0,25.7
2012-01-18 00:22:00,0.0,1.9265,0.0011,400.46,0.22,-0.5,2.8,138.14,28.45,24.60,36.32,0.04,-272.74,-272.74,-52,556,-942,23.2,2.3,-27.5,23.0,2.3,-27.3,5.73,2.40,-29.0,25.7
2012-01-18 00:23:00,0.0,1.9250,0.0011,400.37,0.24,0.2,7.5,138.15,28.43,24.60,36.32,0.04,-272.73,-272.74,-52,556,-942,23.1,2.2,-27.6,23.0,2.3,-27.3,5.73,2.44,-29.1,25.5
2012-01-18 00:24:00,0.0,1.9258,0.0011,400.44,0.21,-0.7,1.7,138.15,28.41,24.60,36.32,0.04,-272.73,-272.73,-51,556,-942,23.1,2.2,-27.6,23.0,2.3,-27.3,5.73,2.40,-29.1,26.1
2012-01-18 00:25:00,0.0,1.9260,0.0010,400.49,0.21,0.0,4.4,138.14,28.40,24.60,36.31,0.04,-272.74,-272.73,-51,556,-942,23.1,2.2,-27.6,23.0,2.3,-27.3,5.73,2.39,-29.0,26.6
2012-01-18 00:26:00,0.0,1.9261,0.0010,400.51,0.23,0.7,5.2,138.13,28.40,24.60,36.31,0.04,-272.73,-272.73,-51,556,-942,23.1,2.2,-27.7,23.1,2.3,-27.4,5.73,2.48,-28.8,26.9
2012-01-18 00:27:00,0.0,1.9264,0.0014,400.59,0.23,3.3,9.8,138.12,28.41,24.60,36.32,0.04,-272.73,-272.74,-51,555,-942,23.2,2.2,-27.7,23.1,2.3,-27.4,5.73,2.45,-28.7,27.2
2012-01-18 00:28:00,0.0,1.9309,0.0012,400.72,0.26,9.9,16.7,138.12,28.43,24.60,36.32,0.04,-272.73,-272.73,-52,556,-942,23.2,2.2,-27.8,23.2,2.3,-27.4,5.73,2.29,-28.6,27.4
2012-01-18 00:29:00,0.0,1.9336,0.0010,400.92,0.22,15.2,22.4,138.11,28.45,24.60,36.32,0.04,-272.73,-272.73,-51,556,-942,23.3,2.2,-27.9,23.2,2.2,-27.5,5.73,2.43,-28.5,27.6
2012-01-18 00:30:00,0.0,1.9335,0.0010,400.95,0.20,22.0,25.0,138.10,28.47,24.60,36.32,0.04,-272.73,-272.73,-51,556,-942,23.3,2.1,-27.9,23.2,2.2,-27.6,5.73,2.47,-28.3,27.7
2012-01-18 00:31:00,0.0,1.9322,0.0012,400.96,0.21,28.7,26.5,138.10,28.49,24.61,36.33,0.04,-272.73,-272.74,-51,555,-942,23.3,2.1,-27.9,23.3,2.2,-27.5,5.73,2.29,-28.3,27.8
2012-01-18 00:32:00,0.0,1.9316,0.0010,401.14,0.18,36.7,34.3,138.10,28.52,24.60,36.32,0.04,-272.74,-272.74,-51,556,-942,23.3,2.1,-28.1,23.3,2.2,-27.5,5.73,2.47,-28.2,28.0
2012-01-18 00:33:00,0.0,1.9318,0.0010,401.00,0.22,39.6,29.6,138.09,28.55,24.61,36.33,0.04,-272.74,-272.74,-51,556,-942,23.4,2.1,-28.0,23.4,2.2,-27.6,5.73,2.42,-28.0,28.1
2012-01-18 00:34:00,0.0,1.9322,0.0009,400.94,0.22,48.9,30.6,138.09,28.58,24.61,36.33,0.04,-272.73,-272.73,-51,556,-942,23.4,2.1,-28.0,23.4,2.2,-27.5,5.73,2.30,-28.0,27.7
2012-01-18 00:35:00,0.0,1.9324,0.0009,401.13,0.16,36.3,31.0,138.09,28.61,24.61,36.32,0.04,-272.74,-272.74,-51,556,-942,23.5,2.1,-28.0,23.4,2.2,-27.6,5.73,2.40,-28.0,27.3
2012-01-18 00:36:00,0.0,1.9323,0.0010,401.14,0.19,34.6,26.4,138.10,28.62,24.61,36.33,0.04,-272.73,-272.74,-51,556,-942,23.5,2.1,-28.0,23.4,2.2,-27.6,5.73,2.41,-28.0,27.0
2012-01-18 00:37:00,0.0,1.9333,0.0009,401.25,0.20,34.6,29.1,138.10,28.63,24.60,36.33,0.04,-272.73,-272.73,-51,557,-943,23.5,2.1,-28.0,23.4,2.2,-27.6,5.73,2.40,-28.0,26.9
2012-01-18 00:38:00,0.0,1.9325,0.0008,401.28,0.24,33.3,28.0,138.11,28.64,24.61,36.33,0.04,-272.74,-272.73,-51,557,-943,23.5,2.1,-28.0,23.4,2.2,-27.6,5.73,2.39,-28.1,26.7
2012-01-18 00:39:00,0.0,1.9335,0.0010,401.30,0.18,25.7,24.7,138.11,28.64,24.61,36.32,0.04,-272.74,-272.74,-51,557,-942,23.5,2.1,-28.0,23.4,2.2,-27.6,5.73,2.41,-28.2,26.6
2012-01-18 00:40:00,0.0,1.9328,0.0013,401.30,0.21,23.6,22.6,138.12,28.63,24.61,36.32,0.04,-272.73,-272.73,-51,557,-942,23.5,2.1,-28.0,23.4,2.2,-27.6,5.73,2.42,-28.3,26.6
2012-01-18 00:41:00,0.0,1.9310,0.0009,401.17,0.17,17.2,21.7,138.12,28.63,24.61,36.33,0.04,-272.73,-272.74,-52,557,-943,23.4,2.1,-28.0,23.3,2.2,-27.6,5.73,2.43,-28.3,26.4
2012-01-18 00:42:00,0.0,1.9318,0.0009,401.18,0.16,14.8,22.0,138.12,28.62,24.61,36.32,0.04,-272.74,-272.74,-51,557,-943,23.4,2.1,-28.0,23.3,2.2,-27.6,5.73,2.45,-28.3,26.4
2012-01-18 00:43:00,0.0,1.9318,0.0010,401.10,0.21,9.0,16.6,138.13,28.61,24.60,36.32,0.04,-272.73,-272.74,-51,557,-942,23.4,2.1,-28.0,23.3,2.2,-27.6,5.73,2.45,-28.4,26.4
2012-01-18 00:44:00,0.0,1.9314,0.0011,400.91,0.22,9.8,19.5,138.13,28.60,24.61,36.33,0.04,-272.73,-272.73,-51,557,-943,23.4,2.1,-28.0,23.3,2.2,-27.7,5.73,2.44,-28.4,26.3
2012-01-18 00:45:00,0.0,1.9325,0.0008,400.95,0.23,5.5,12.5,138.13,28.58,24.61,36.32,0.04,-272.74,-272.74,-51,557,-943,23.3,2.1,-28.0,23.3,2.2,-27.7,5.73,2.42,-28.5,26.3
2012-01-18 00:46:00,0.0,1.9328,0.0008,400.89,0.21,5.0,13.3,138.13,28.57,24.60,36.32,0.04,-272.73,-272.74,-51,557,-942,23.3,2.1,-28.0,23.3,2.2,-27.7,5.73,2.39,-28.5,26.1
2012-01-18 00:47:00,0.0,1.9328,0.0010,400.75,0.21,4.7,13.2,138.14,28.56,24.60,36.33,0.04,-272.73,-272.74,-52,557,-942,23.3,2.1,-28.0,23.2,2.2,-27.7,5.73,2.36,-28.6,26.1
2012-01-18 00:48:00,0.0,1.9314,0.0011,400.70,0.24,1.8,8.5,138.14,28.54,24.60,36.32,0.04,-272.74,-272.73,-52,556,-943,23.3,2.1,-28.1,23.2,2.2,-27.6,5.73,2.35,-28.6,26.0
2012-01-18 00:49:00,0.0,1.9315,0.0008,400.80,0.23,0.7,5.5,138.14,28.52,24.60,36.31,0.04,-272.74,-272.73,-52,556,-943,23.3,2.1,-28.1,23.2,2.2,-27.6,5.73,2.35,-28.6,26.0
2012-01-18 00:50:00,0.0,1.9316,0.0011,400.73,0.20,1.2,7.7,138.14,28.51,24.60,36.32,0.04,-272.73,-272.74,-51,556,-942,23.3,2.1,-28.1,23.2,2.2,-27.6,5.73,2.37,-28.6,25.9
2012-01-18 00:51:00,0.0,1.9293,0.0013,400.68,0.20,0.3,5.9,138.14,28.49,24.60,36.31,0.04,-272.73,-272.74,-51,557,-942,23.2,2.2,-27.9,23.2,2.2,-27.6,5.73,2.40,-28.7,26.0
2012-01-18 00:52:00,0.0,1.9279,0.0013,400.81,0.20,0.3,4.5,138.14,28.47,24.60,36.30,0.04,-272.73,-272.73,-51,557,-942,23.2,2.2,-27.8,23.1,2.2,-27.6,5.73,2.44,-28.7,26.0
2012-01-18 00:53:00,0.0,1.9274,0.0009,400.67,0.23,1.0,6.8,138.15,28.46,24.60,36.31,0.04,-272.73,-272.73,-52,557,-943,23.2,2.2,-27.8,23.1,2.2,-27.7,5.73,2.46,-28.7,25.9
2012-01-18 00:54:00,0.0,1.9268,0.0009,400.66,0.23,1.0,8.4,138.15,28.44,24.60,36.31,0.04,-272.74,-272.74,-52,556,-943,23.2,2.2,-27.8,23.1,2.2,-27.7,5.73,2.43,-28.7,26.1
2012-01-18 00:55:00,0.0,1.9272,0.0008,400.62,0.23,1.0,8.3,138.14,28.43,24.60,36.31,0.04,-272.73,-272.74,-51,556,-942,23.2,2.2,-27.9,23.1,2.2,-27.6,5.73,2.34,-28.7,26.7
2012-01-18 00:56:00,0.0,1.9277,0.0011,400.62,0.22,0.5,5.5,138.13,28.43,24.60,36.32,0.04,-272.74,-272.74,-51,556,-942,23.2,2.2,-27.9,23.1,2.2,-27.6,5.73,2.37,-28.5,27.0
2012-01-18 00:57:00,0.0,1.9291,0.0010,400.67,0.20,6.4,14.9,138.13,28.43,24.60,36.32,0.04,-272.74,-272.74,-52,555,-942,23.2,2.2,-27.9,23.2,2.3,-27.5,5.73,2.49,-28.4,27.3
2012-01-18 00:58:00,0.0,1.9292,0.0011,400.80,0.22,14.3,19.0,138.12,28.44,24.60,36.32,0.04,-272.73,-272.73,-52,556,-942,23.3,2.1,-27.9,23.2,2.2,-27.5,5.73,2.42,-28.3,27.4
2012-01-18 00:59:00,0.0,1.9294,0.0010,400.92,0.17,17.4,19.7,138.11,28.46,24.60,36.32,0.04,-272.73,-272.74,-51,556,-942,23.3,2.1,-27.9,23.3,2.2,-27.5,5.73,2.29,-28.2,27.6
2012-01-18 01:00:00,0.0,1.9290,0.0010,400.94,0.19,21.7,26.7,138.11,28.48,24.60,36.32,0.04,-272.73,-272.73,-51,556,-942,23.3,2.1,-27.9,23.3,2.2,-27.5,5.73,2.48,-28.1,27.8
2012-01-18 01:01:00,0.0,1.9289,0.0009,400.88,0.21,41.3,24.6,138.10,28.51,24.60,36.33,0.04,-272.73,-272.74,-51,556,-942,23.4,2.2,-27.9,23.3,2.2,-27.5,5.73,2.42,-28.0,27.9
2012-01-18 01:02:00,0.0,1.9290,0.0009,400.97,0.22,45.0,31.8,138.10,28.53,24.60,36.32,0.04,-272.73,-272.73,-51,556,-942,23.4,2.1,-27.9,23.4,2.2,-27.4,5.73,2.30,-27.9,28.0
2012-01-18 01:03:00,0.0,1.9297,0.0008,400.93,0.20,52.9,32.2,138.09,28.56,24.60,36.32,0.04,-272.74,-272.74,-51,556,-942,23.5,2.1,-27.8,23.4,2.2,-27.4,5.73,2.51,-27.8,28.1
2012-01-18 01:04:00,0.0,1.9299,0.0008,400.98,0.20,59.7,26.1,138.09,28.59,24.60,36.33,0.04,-272.73,-272.73,-51,556,-942,23.5,2.1,-27.8,23.5,2.2,-27.4,5.73,2.37,-27.7,28.0
2012-01-18 01:05:00,0.0,1.9301,0.0008,400.97,0.22,46.8,28.3,138.09,28.61,24.60,36.33,0.04,-272.73,-272.73,-51,556,-942,23.5,2.2,-27.8,23.5,2.2,-27.4,5.73,2.34,-27.7,27.5
2012-01-18 01:06:00,0.0,1.9302,0.0008,401.06,0.21,53.4,31.7,138.09,28.63,24.60,36.33,0.04,-272.74,-272.73,-51,556,-942,23.5,2.1,-27.8,23.5,2.2,-27.4,5.73,2.38,-27.7,27.2
2012-01-18 01:07:00,0.0,1.9309,0.0009,401.19,0.26,53.6,26.4,138.10,28.64,24.60,36.32,0.04,-272.73,-272.73,-51,557,-942,23.5,2.1,-27.8,23.5,2.2,-27.4,5.73,2.41,-27.7,27.0
2012-01-18 01:08:00,0.0,1.9309,0.0010,401.16,0.20,44.5,27.9,138.10,28.65,24.60,36.33,0.04,-272.73,-272.73,-51,557,-942,23.5,2.2,-27.8,23.5,2.2,-27.4,5.73,2.42,-27.8,26.9
2012-01-18 01:09:00,0.0,1.9307,0.0008,401.25,0.18,37.0,26.4,138.11,28.65,24.61,36.32,0.04,-272.73,-272.74,-51,557,-942,23.5,2.1,-27.8,23.5,2.2,-27.4,5.73,2.43,-27.9,26.7
2012-01-18 01:10:00,0.0,1.9306,0.0007,401.25,0.18,32.3,25.0,138.11,28.65,24.61,36.33,0.04,-272.73,-272.74,-51,557,-942,23.5,2.1,-27.8,23.5,2.2,-27.4,5.73,2.44,-28.0,26.5
2012-01-18 01:11:00,0.0,1.9311,0.0007,401.21,0.21,27.1,26.2,138.12,28.64,24.61,36.32,0.04,-272.73,-272.73,-51,557,-942,23.5,2.2,-27.7,23.4,2.2,-27.5,5.73,2.45,-28.0,26.6
2012-01-18 01:12:00,0.0,1.9305,0.0009,401.19,0.25,22.9,28.2,138.12,28.64,24.61,36.32,0.04,-272.74,-272.74,-52,557,-943,23.5,2.2,-27.8,23.4,2.2,-27.5,5.73,2.44,-28.1,26.5
2012-01-18 01:13:00,0.0,1.9308,0.0008,401.10,0.21,20.4,23.7,138.12,28.63,24.60,36.33,0.04,-272.74,-272.74,-52,557,-943,23.5,2.2,-27.7,23.4,2.2,-27.5,5.73,2.43,-28.1,26.4
2012-01-18 01:14:00,0.0,1.9304,0.0009,401.01,0.20,16.4,20.2,138.13,28.62,24.61,36.33,0.04,-272.73,-272.73,-51,557,-942,23.5,2.2,-27.7,23.4,2.2,-27.5,5.73,2.41,-28.2,26.2
2012-01-18 01:15:00,0.0,1.9298,0.0009,400.94,0.25,14.0,21.8,138.13,28.60,24.61,36.32,0.04,-272.73,-272.73,-51,557,-942,23.4,2.2,-27.7,23.3,2.3,-27.4,5.73,2.39,-28.2,26.2
2012-01-18 01:16:00,0.0,1.9289,0.0009,400.89,0.25,12.8,20.2,138.13,28.59,24.61,36.32,0.04,-272.74,-272.73,-51,557,-943,23.4,2.2,-27.7,23.3,2.2,-27.5,5.73,2.36,-28.3,26.1
2012-01-18 01:17:00,0.0,1.9290,0.0008,400.75,0.24,5.2,14.5,138.13,28.58,24.60,36.33,0.04,-272.73,-272.74,-51,557,-943,23.4,2.2,-27.7,23.3,2.2,-27.5,5.73,2.36,-28.3,26.2
2012-01-18 01:18:00,0.0,1.9285,0.0010,400.67,0.16,10.0,16.0,138.14,28.56,24.61,36.32,0.04,-272.74,-272.74,-52,557,-943,23.4,2.2,-27.8,23.3,2.2,-27.5,5.73,2.36,-28.3,26.1
2012-01-18 01:19:00,0.0,1.9287,0.0011,400.64,0.23,3.4,10.4,138.14,28.55,24.60,36.32,0.04,-272.74,-272.74,-52,557,-942,23.3,2.2,-27.8,23.3,2.3,-27.4,5.73,2.37,-28.4,26.0
2012-01-18 01:20:00,0.0,1.9282,0.0008,400.61,0.20,4.2,12.1,138.14,28.53,24.60,36.32,0.04,-272.74,-272.74,-52,557,-942,23.3,2.2,-27.8,23.2,2.3,-27.5,5.73,2.39,-28.4,26.0
2012-01-18 01:21:00,0.0,1.9272,0.0010,400.59,0.22,3.2,10.2,138.14,28.52,24.61,36.32,0.04,-272.73,-272.74,-52,557,-942,23.3,2.2,-27.8,23.3,2.3,-27.4,5.73,2.42,-28.4,26.0
2012-01-18 01:22:00,0.0,1.9266,0.0008,400.69,0.24,4.0,13.2,138.14,28.50,24.60,36.31,0.04,-272.73,-272.73,-51,557,-942,23.3,2.2,-27.7,23.2,2.3,-27.4,5.73,2.44,-28.5,26.0
2012-01-18 01:23:00,0.0,1.9259,0.0009,400.48,0.21,2.6,8.4,138.14,28.49,24.60,36.32,0.04,-272.73,-272.74,-51,557,-943,23.3,2.2,-27.7,23.2,2.3,-27.4,5.73,2.45,-28.5,26.0
2012-01-18 01:24:00,0.0,1.9254,0.0010,400.46,0.22,2.2,8.8,138.14,28.47,24.60,36.32,0.04,-272.73,-272.73,-51,557,-943,23.3,2.2,-27.7,23.2,2.3,-27.3,5.73,2.45,-28.5,26.0
2012-01-18 01:25:00,0.0,1.9255,0.0009,400.58,0.20,4.1,12.2,138.15,28.46,24.60,36.31,0.04,-272.73,-272.74,-52,557,-943,23.2,2.2,-27.7,23.1,2.3,-27.4,5.73,2.42,-28.5,26.1
2012-01-18 01:26:00,0.0,1.9250,0.0008,400.47,0.22,2.2,9.6,138.14,28.45,24.60,36.32,0.04,-272.74,-272.74,-51,556,-942,23.2,2.2,-27.7,23.1,2.3,-27.3,5.73,2.36,-28.5,26.6
2012-01-18 01:27:00,0.0,1.9257,0.0008,400.49,0.21,5.2,12.7,138.13,28.44,24.60,36.32,0.04,-272.74,-272.73,-52,556,-942,23.3,2.2,-27.8,23.2,2.3,-27.4,5.73,2.32,-28.3,27.0
2012-01-18 01:28:00,0.0,1.9266,0.0009,400.61,0.20,8.4,16.3,138.13,28.45,24.60,36.32,0.04,-272.73,-272.73,-52,556,-942,23.3,2.2,-27.8,23.2,2.3,-27.4,5.73,2.40,-28.2,27.3
2012-01-18 01:29:00,0.0,1.9271,0.0008,400.84,0.25,14.4,20.4,138.12,28.46,24.60,36.32,0.04,-272.74,-272.74,-51,556,-942,23.3,2.2,-27.8,23.3,2.2,-27.5,5.73,2.51,-28.1,27.5
2012-01-18 01:30:00,0.0,1.9267,0.0009,400.93,0.23,26.7,23.3,138.11,28.48,24.61,36.32,0.04,-272.74,-272.73,-51,556,-942,23.3,2.2,-27.8,23.3,2.2,-27.5,5.73,2.34,-28.0,27.6
2012-01-18 01:31:00,0.0,1.9268,0.0009,401.00,0.22,37.0,26.4,138.11,28.50,24.61,36.32,0.04,-272.73,-272.73,-51,556,-942,23.4,2.2,-27.7,23.3,2.2,-27.5,5.73,2.34,-27.9,27.8
2012-01-18 01:32:00,0.0,1.9268,0.0008,401.00,0.20,36.9,24.3,138.10,28.52,24.60,36.32,0.04,-272.74,-272.74,-52,556,-942,23.4,2.2,-27.8,23.4,2.2,-27.5,5.73,2.51,-27.8,27.9
2012-01-18 01:33:00,0.0,1.9266,0.0008,400.87,0.19,52.6,26.6,138.10,28.55,24.61,36.33,0.04,-272.74,-272.73,-51,556,-941,23.5,2.1,-27.8,23.4,2.2,-27.4,5.73,2.32,-27.7,28.1
2012-01-18 01:34:00,0.0,1.9267,0.0009,400.86,0.21,60.4,31.4,138.09,28.57,24.61,36.33,0.04,-272.73,-272.73,-51,556,-941,23.5,2.1,-27.8,23.5,2.2,-27.4,5.73,2.40,-27.6,28.2
2012-01-18 01:35:00,0.0,1.9269,0.0008,400.94,0.22,62.2,29.8,138.09,28.60,24.60,36.33,0.04,-272.73,-272.74,-51,556,-942,23.5,2.2,-27.8,23.5,2.2,-27.4,5.73,2.49,-27.5,28.0
2012-01-18 01:36:00,0.0,1.9271,0.0008,400.93,0.19,55.9,26.7,138.09,28.63,24.60,36.33,0.04,-272.73,-272.74,-51,556,-942,23.6,2.2,-27.6,23.5,2.2,-27.3,5.73,2.37,-27.5,27.6
2012-01-18 01:37:00,0.0,1.9271,0.0007,401.04,0.19,63.4,30.9,138.09,28.65,24.61,36.33,0.04,-272.73,-272.74,-51,557,-942,23.6,2.2,-27.6,23.5,2.3,-27.2,5.73,2.38,-27.5,27.3
2012-01-18 01:38:00,0.0,1.9271,0.0010,401.05,0.22,54.9,29.4,138.10,28.66,24.61,36.33,0.04,-272.74,-272.73,-51,557,-942,23.6,2.2,-27.6,23.6,2.3,-27.2,5.73,2.40,-27.6,27.0
2012-01-18 01:39:00,0.0,1.9276,0.0009,401.06,0.19,54.6,32.9,138.10,28.67,24.61,36.33,0.04,-272.74,-272.74,-51,557,-942,23.6,2.2,-27.6,23.5,2.3,-27.3,5.73,2.42,-27.7,26.9
2012-01-18 01:40:00,0.0,1.9273,0.0009,401.09,0.24,44.2,35.8,138.11,28.67,24.61,36.33,0.04,-272.74,-272.74,-51,558,-942,23.6,2.2,-27.6,23.5,2.2,-27.3,5.73,2.43,-27.7,26.9
2012-01-18 01:41:00,0.0,1.9270,0.0010,401.08,0.23,42.9,32.2,138.11,28.67,24.61,36.33,0.04,-272.73,-272.74,-51,558,-942,23.6,2.2,-27.6,23.5,2.2,-27.3,5.73,2.42,-27.7,26.8
2012-01-18 01:42:00,0.0,1.9271,0.0009,401.12,0.20,39.7,30.1,138.12,28.66,24.61,36.32,0.04,-272.74,-272.74,-51,558,-943,23.5,2.2,-27.7,23.5,2.2,-27.4,5.73,2.41,-27.8,26.6
2012-01-18 01:43:00,0.0,1.9271,0.0009,401.04,0.24,25.7,26.9,138.12,28.65,24.61,36.33,0.04,-272.74,-272.73,-52,557,-943,23.5,2.2,-27.6,23.5,2.2,-27.4,5.73,2.40,-27.9,26.6
2012-01-18 01:44:00,0.0,1.9273,0.0010,400.94,0.21,25.6,25.4,138.12,28.65,24.61,36.33,0.04,-272.73,-272.74,-52,557,-942,23.5,2.2,-27.6,23.5,2.2,-27.4,5.73,2.38,-28.0,26.6
2012-01-18 01:45:00,0.0,1.9272,0.0009,400.88,0.18,12.6,19.5,138.12,28.64,24.61,36.33,0.04,-272.74,-272.73,-52,557,-942,23.5,2.2,-27.6,23.4,2.2,-27.4,5.73,2.36,-28.0,26.5
2012-01-18 01:46:00,0.0,1.9273,0.0009,400.88,0.24,16.0,23.8,138.13,28.62,24.61,36.32,0.04,-272.74,-272.74,-51,557,-942,23.5,2.2,-27.7,23.4,2.3,-27.3,5.73,2.36,-28.1,26.4
2012-01-18 01:47:00,0.0,1.9275,0.0009,400.71,0.22,13.7,18.8,138.13,28.61,24.61,36.33,0.04,-272.73,-272.73,-51,557,-942,23.5,2.2,-27.7,23.4,2.3,-27.3,5.73,2.35,-28.1,26.3
2012-01-18 01:48:00,0.0,1.9270,0.0011,400.72,0.23,10.2,15.3,138.13,28.60,24.61,36.33,0.04,-272.73,-272.74,-51,557,-943,23.5,2.2,-27.7,23.4,2.3,-27.3,5.73,2.37,-28.2,26.3
2012-01-18 01:49:00,0.0,1.9264,0.0010,400.72,0.22,8.2,13.9,138.13,28.58,24.60,36.32,0.04,-272.73,-272.73,-51,557,-942,23.5,2.2,-27.7,23.4,2.3,-27.4,5.73,2.39,-28.2,26.3
2012-01-18 01:50:00,0.0,1.9262,0.0010,400.63,0.24,11.5,19.8,138.13,28.57,24.60,36.32,0.04,-272.74,-272.74,-52,557,-942,23.5,2.2,-27.6,23.3,2.3,-27.3,5.73,2.42,-28.2,26.2
2012-01-18 01:51:00,0.0,1.9256,0.0009,400.62,0.20,8.1,13.8,138.14,28.56,24.61,36.32,0.04,-272.73,-272.73,-52,557,-942,23.4,2.2,-27.6,23.3,2.3,-27.3,5.73,2.44,-28.3,26.1
2012-01-18 01:52:00,0.0,1.9254,0.0010,400.53,0.21,6.4,13.7,138.14,28.54,24.60,36.32,0.04,-272.73,-272.73,-52,557,-942,23.4,2.2,-27.6,23.3,2.3,-27.2,5.73,2.45,-28.3,26.1
2012-01-18 01:53:00,0.0,1.9253,0.0010,400.55,0.23,2.6,7.9,138.14,28.53,24.61,36.31,0.04,-272.73,-272.73,-52,557,-942,23.4,2.2,-27.5,23.3,2.3,-27.3,5.73,2.45,-28.3,26.1
2012-01-18 01:54:00,0.0,1.9246,0.0008,400.50,0.22,6.6,15.9,138.14,28.51,24.61,36.31,0.04,-272.73,-272.73,-51,557,-942,23.3,2.2,-27.5,23.3,2.3,-27.2,5.73,2.43,-28.3,26.0
2012-01-18 01:55:00,0.0,1.9246,0.0009,400.47,0.23,4.7,14.0,138.14,28.50,24.60,36.32,0.04,-272.73,-272.73,-51,557,-942,23.3,2.2,-27.5,23.2,2.3,-27.2,5.73,2.40,-28.3,25.9
2012-01-18 01:56:00,0.0,1.9245,0.0010,400.45,0.22,3.6,13.7,138.14,28.49,24.60,36.32,0.04,-272.74,-272.74,-52,557,-942,23.3,2.2,-27.5,23.3,2.3,-27.2,5.73,2.37,-28.4,26.0
2012-01-18 01:57:00,0.0,1.9237,0.0009,400.39,0.20,4.3,12.1,138.14,28.47,24.60,36.32,0.04,-272.73,-272.73,-52,557,-942,23.3,2.2,-27.5,23.2,2.3,-27.1,5.73,2.36,-28.4,26.1
2012-01-18 01:58:00,0.0,1.9237,0.0009,400.39,0.21,2.8,10.2,138.14,28.46,24.60,36.32,0.04,-272.74,-272.74,-52,556,-942,23.3,2.2,-27.5,23.2,2.3,-27.2,5.73,2.43,-28.3,26.6
2012-01-18 01:59:00,0.0,1.9246,0.0009,400.41,0.20,6.5,11.8,138.13,28.46,24.60,36.32,0.04,-272.74,-272.73,-52,556,-942,23.3,2.3,-27.4,23.3,2.3,-27.2,5.73,2.40,-28.2,27.0
2012-01-18 02:00:00,0.0,1.9257,0.0011,400.60,0.23,17.6,23.3,138.13,28.46,24.60,36.32,0.04,-272.74,-272.74,-52,556,-942,23.3,2.3,-27.3,23.3,2.3,-27.1,5.73,2.30,-28.1,27.3
2012-01-18 02:01:00,0.0,1.9259,0.0008,400.68,0.21,15.3,21.6,138.12,28.47,24.60,36.33,0.04,-272.73,-272.73,-52,556,-941,23.4,2.3,-27.3,23.3,2.3,-27.0,5.73,2.39,-28.0,27.5
2012-01-18 02:02:00,0.0,1.9259,0.0010,400.87,0.19,32.6,28.5,138.11,28.49,24.60,36.32,0.04,-272.73,-272.73,-51,556,-942,23.4,2.3,-27.3,23.4,2.3,-26.9,5.73,2.50,-27.9,27.7
2012-01-18 02:03:00,0.0,1.9259,0.0008,400.86,0.21,38.6,29.6,138.11,28.51,24.60,36.33,0.04,-272.74,-272.74,-51,556,-941,23.5,2.2,-27.4,23.4,2.3,-26.9,5.73,2.31,-27.8,27.9
2012-01-18 02:04:00,0.0,1.9258,0.0009,400.90,0.19,51.6,28.3,138.10,28.54,24.60,36.32,0.04,-272.74,-272.73,-52,556,-941,23.5,2.2,-27.4,23.4,2.3,-26.9,5.73,2.40,-27.7,28.0
2012-01-18 02:05:00,0.0,1.9260,0.0009,400.80,0.19,55.3,29.0,138.10,28.56,24.60,36.33,0.04,-272.73,-272.74,-51,557,-941,23.5,2.2,-27.4,23.5,2.3,-26.9,5.73,2.49,-27.6,28.1
2012-01-18 02:06:00,0.0,1.9264,0.0010,400.87,0.20,62.8,33.3,138.09,28.59,24.60,36.33,0.04,-272.74,-272.74,-51,556,-941,23.6,2.2,-27.3,23.5,2.3,-26.9,5.73,2.28,-27.5,28.2
2012-01-18 02:07:00,0.0,1.9264,0.0008,400.88,0.21,73.3,28.5,138.09,28.62,24.61,36.33,0.04,-272.73,-272.74,-51,556,-941,23.6,2.2,-27.3,23.6,2.3,-26.8,5.73,2.46,-27.4,28.1
2012-01-18 02:08:00,0.0,1.9262,0.0007,400.88,0.19,64.6,28.5,138.09,28.64,24.61,36.33,0.04,-272.73,-272.74,-51,557,-941,23.6,2.2,-27.3,23.6,2.3,-26.8,5.73,2.46,-27.3,27.7
2012-01-18 02:09:00,0.0,1.9266,0.0009,400.80,0.20,75.1,32.4,138.09,28.66,24.61,36.34,0.04,-272.74,-272.74,-51,557,-942,23.7,2.2,-27.2,23.6,2.3,-26.8,5.73,2.42,-27.4,27.4
2012-01-18 02:10:00,0.0,1.9265,0.0007,400.92,0.19,69.1,33.2,138.10,28.68,24.61,36.33,0.04,-272.74,-272.73,-51,557,-941,23.7,2.3,-27.2,23.6,2.3,-26.8,5.73,2.41,-27.5,27.2
2012-01-18 02:11:00,0.0,1.9265,0.0009,400.96,0.19,58.4,33.9,138.10,28.68,24.61,36.33,0.04,-272.73,-272.74,-51,558,-941,23.7,2.3,-27.2,23.6,2.3,-26.8,5.73,2.40,-27.5,27.1
2012-01-18 02:12:00,0.0,1.9266,0.0008,401.09,0.20,51.7,34.1,138.11,28.69,24.61,36.33,0.04,-272.74,-272.73,-51,557,-942,23.6,2.3,-27.1,23.6,2.3,-26.8,5.73,2.40,-27.6,26.9
2012-01-18 02:13:00,0.0,1.9265,0.0008,401.15,0.27,48.7,30.6,138.11,28.69,24.61,36.32,0.04,-272.73,-272.73,-51,558,-942,23.6,2.3,-27.1,23.6,2.4,-26.7,5.73,2.39,-27.6,26.7
2012-01-18 02:14:00,0.0,1.9267,0.0008,401.16,0.20,34.5,24.5,138.11,28.68,24.61,36.32,0.04,-272.73,-272.73,-51,558,-942,23.6,2.3,-27.1,23.5,2.4,-26.7,5.73,2.37,-27.7,26.7
2012-01-18 02:15:00,0.0,1.9268,0.0008,401.13,0.24,42.4,27.7,138.12,28.67,24.61,36.33,0.04,-272.73,-272.74,-52,558,-942,23.6,2.3,-27.1,23.5,2.4,-26.7,5.73,2.37,-27.8,26.6
2012-01-18 02:16:00,0.0,1.9267,0.0008,401.02,0.21,40.0,25.5,138.12,28.67,24.61,36.33,0.04,-272.74,-272.74,-52,557,-942,23.6,2.3,-27.0,23.5,2.4,-26.7,5.73,2.36,-27.8,26.5
2012-01-18 02:17:00,0.0,1.9268,0.0009,401.05,0.21,28.0,28.8,138.12,28.66,24.61,36.32,0.04,-272.74,-272.74,-52,557,-942,23.6,2.3,-27.0,23.5,2.4,-26.7,5.73,2.37,-27.9,26.5
2012-01-18 02:18:00,0.0,1.9271,0.0008,400.96,0.22,19.7,19.6,138.12,28.64,24.60,36.32,0.04,-272.73,-272.74,-52,557,-942,23.6,2.3,-27.0,23.5,2.4,-26.6,5.73,2.37,-27.9,26.4